Find Kuiper-00075

NORAD ID: 64822 Int'l Des: 2025-151 Owner: KUIP Country: US Constellation: amazon-leo operational
LEOCIRCULAR

Aktuelle Ansicht

3D-Globus wird geladen...

Über Kuiper-00075

Beschreibung wird geladen...

Nächste Überflüge

Passes for default location (London). Set your location on the main map for personalized predictions.

Höhenverlauf

Loading altitude history...

Zweizeiliger Elementsatz

1 64822U 25151G 26149.48564711 .00055713 00000-0 12009-2 0 9999
2 64822 51.8669 187.8249 0002364 216.0269 144.0561 15.44038029 48873
Epoch: 29. Mai 2026 • Age: 13 hours

Aktueller Status

Höhe 433.0 km
Geschwindigkeit 7.65 km/s
Subsatellitenpunkt 10.47°N, 97.28°E
Startdatum 16. Juli 2025
Alter 0.8 years
Typ internet

Technische Details

Klassifizierung Payload
Masse 490.00 kg
Trockenmasse 490.00 kg
Gesamtmasse 490.00 kg
Länge 1.80 m
Durchmesser 0.70 m
Spannweite 5.00 m
Form Box + 2 pan
Hersteller KUIP
Bus-Typ Kuiper
Phasenstatus In Orbit
Besitzer/Staat KUIP/US

Most Searched